STATID,TT.MM.JJJJ,TX,TXF,TM,TMF,TN,TNF,RR,RRF,RF,RFF,DD,DDF,SD,SDF,FF,FFF,ET,RG,SN,SNF,FM,FMF,RK,RKF,GR
2075,01.01.1961,,,,,,,,,,,,,,,,,,,1,2,,,,,
2075,02.01.1961,,,,,,,,,,,,,,,,,,,0,2,,,,,
2075,03.01.1961,,,,,,,,,,,,,,,,,,,0,2,,,,,
2075,04.01.1961,,,,,,,,,,,,,,,,,,,0,2,,,,,
2075,05.01.1961,,,,,,,,,,,,,,,,,,,0,2,,,,,
2075,06.01.1961,,,,,,,,,,,,,,,,,,,0,2,,,,,
2075,07.01.1961,,,,,,,,,,,,,,,,,,,0,2,,,,,
2075,08.01.1961,,,,,,,,,,,,,,,,,,,0,2,,,,,
2075,09.01.1961,,,,,,,,,,,,,,,,,,,0,2,,,,,
2075,10.01.1961,,,,,,,,,,,,,,,,,,,0,2,,,,,
2075,11.01.1961,,,,,,,,,,,,,,,,,,,0,2,,,,,
2075,12.01.1961,,,,,,,,,,,,,,,,,,,0,2,,,,,
2075,13.01.1961,,,,,,,,,,,,,,,,,,,0,2,,,,,
2075,14.01.1961,,,,,,,,,,,,,,,,,,,0,2,,,,,
2075,15.01.1961,,,,,,,,,,,,,,,,,,,0,2,,,,,
2075,16.01.1961,,,,,,,,,,,,,,,,,,,0,2,,,,,
2075,17.01.1961,,,,,,,,,,,,,,,,,,,1,2,,,,,
2075,18.01.1961,,,,,,,,,,,,,,,,,,,0,2,,,,,
2075,19.01.1961,,,,,,,,,,,,,,,,,,,1,2,,,,,
2075,20.01.1961,,,,,,,,,,,,,,,,,,,0,2,,,,,
2075,21.01.1961,,,,,,,,,,,,,,,,,,,0,2,,,,,
2075,22.01.1961,,,,,,,,,,,,,,,,,,,0,2,,,,,
2075,23.01.1961,,,,,,,,,,,,,,,,,,,1,2,,,,,
2075,24.01.1961,,,,,,,,,,,,,,,,,,,2,2,,,,,
2075,25.01.1961,,,,,,,,,,,,,,,,,,,2,2,,,,,
2075,26.01.1961,,,,,,,,,,,,,,,,,,,3,2,,,,,
2075,27.01.1961,,,,,,,,,,,,,,,,,,,3,2,,,,,
2075,28.01.1961,,,,,,,,,,,,,,,,,,,2,2,,,,,
2075,29.01.1961,,,,,,,,,,,,,,,,,,,0,2,,,,,
2075,30.01.1961,,,,,,,,,,,,,,,,,,,0,2,,,,,
2075,31.01.1961,,,,,,,,,,,,,,,,,,,0,2,,,,,
2075,01.02.1961,,,,,,,,,,,,,,,,,,,0,2,,,,,
2075,02.02.1961,,,,,,,,,,,,,,,,,,,0,2,,,,,
2075,03.02.1961,,,,,,,,,,,,,,,,,,,0,2,,,,,
2075,04.02.1961,,,,,,,,,,,,,,,,,,,1,2,,,,,
2075,05.02.1961,,,,,,,,,,,,,,,,,,,2,2,,,,,
2075,06.02.1961,,,,,,,,,,,,,,,,,,,1,2,,,,,
2075,07.02.1961,,,,,,,,,,,,,,,,,,,0,2,,,,,
2075,08.02.1961,,,,,,,,,,,,,,,,,,,0,2,,,,,
2075,09.02.1961,,,,,,,,,,,,,,,,,,,0,2,,,,,
2075,10.02.1961,,,,,,,,,,,,,,,,,,,0,2,,,,,
2075,11.02.1961,,,,,,,,,,,,,,,,,,,0,2,,,,,
2075,12.02.1961,,,,,,,,,,,,,,,,,,,0,2,,,,,
2075,13.02.1961,,,,,,,,,,,,,,,,,,,0,2,,,,,
2075,14.02.1961,,,,,,,,,,,,,,,,,,,0,2,,,,,
2075,15.02.1961,,,,,,,,,,,,,,,,,,,0,2,,,,,
2075,16.02.1961,,,,,,,,,,,,,,,,,,,0,2,,,,,
2075,17.02.1961,,,,,,,,,,,,,,,,,,,0,2,,,,,
2075,18.02.1961,,,,,,,,,,,,,,,,,,,0,2,,,,,
2075,19.02.1961,,,,,,,,,,,,,,,,,,,0,2,,,,,
2075,20.02.1961,,,,,,,,,,,,,,,,,,,0,2,,,,,
2075,21.02.1961,,,,,,,,,,,,,,,,,,,0,2,,,,,
2075,22.02.1961,,,,,,,,,,,,,,,,,,,0,2,,,,,
2075,23.02.1961,,,,,,,,,,,,,,,,,,,0,2,,,,,
2075,24.02.1961,,,,,,,,,,,,,,,,,,,0,2,,,,,
2075,25.02.1961,,,,,,,,,,,,,,,,,,,0,2,,,,,
2075,26.02.1961,,,,,,,,,,,,,,,,,,,0,2,,,,,
2075,27.02.1961,,,,,,,,,,,,,,,,,,,0,2,,,,,
2075,28.02.1961,,,,,,,,,,,,,,,,,,,0,2,,,,,
2075,01.03.1961,,,,,,,,,,,,,,,,,,,0,2,,,,,
2075,02.03.1961,,,,,,,,,,,,,,,,,,,0,2,,,,,
2075,03.03.1961,,,,,,,,,,,,,,,,,,,0,2,,,,,
2075,04.03.1961,,,,,,,,,,,,,,,,,,,0,2,,,,,
2075,05.03.1961,,,,,,,,,,,,,,,,,,,0,2,,,,,
2075,06.03.1961,,,,,,,,,,,,,,,,,,,0,2,,,,,
2075,07.03.1961,,,,,,,,,,,,,,,,,,,0,2,,,,,
2075,08.03.1961,,,,,,,,,,,,,,,,,,,0,2,,,,,
2075,09.03.1961,,,,,,,,,,,,,,,,,,,0,2,,,,,
2075,10.03.1961,,,,,,,,,,,,,,,,,,,0,2,,,,,
2075,11.03.1961,,,,,,,,,,,,,,,,,,,0,2,,,,,
2075,12.03.1961,,,,,,,,,,,,,,,,,,,0,2,,,,,
2075,13.03.1961,,,,,,,,,,,,,,,,,,,0,2,,,,,
2075,14.03.1961,,,,,,,,,,,,,,,,,,,0,2,,,,,
2075,15.03.1961,,,,,,,,,,,,,,,,,,,0,2,,,,,
2075,16.03.1961,,,,,,,,,,,,,,,,,,,0,2,,,,,
2075,17.03.1961,,,,,,,,,,,,,,,,,,,0,2,,,,,
2075,18.03.1961,,,,,,,,,,,,,,,,,,,0,2,,,,,
2075,19.03.1961,,,,,,,,,,,,,,,,,,,0,2,,,,,
2075,20.03.1961,,,,,,,,,,,,,,,,,,,0,2,,,,,
2075,21.03.1961,,,,,,,,,,,,,,,,,,,0,2,,,,,
2075,22.03.1961,,,,,,,,,,,,,,,,,,,0,2,,,,,
2075,23.03.1961,,,,,,,,,,,,,,,,,,,0,2,,,,,
2075,24.03.1961,,,,,,,,,,,,,,,,,,,0,2,,,,,
2075,25.03.1961,,,,,,,,,,,,,,,,,,,0,2,,,,,
2075,26.03.1961,,,,,,,,,,,,,,,,,,,0,2,,,,,
2075,27.03.1961,,,,,,,,,,,,,,,,,,,0,2,,,,,
2075,28.03.1961,,,,,,,,,,,,,,,,,,,1,2,,,,,
2075,29.03.1961,,,,,,,,,,,,,,,,,,,0,2,,,,,
2075,30.03.1961,,,,,,,,,,,,,,,,,,,0,2,,,,,
2075,31.03.1961,,,,,,,,,,,,,,,,,,,0,2,,,,,
2075,01.04.1961,,,,,,,,,,,,,,,,,,,0,2,,,,,
2075,02.04.1961,,,,,,,,,,,,,,,,,,,0,2,,,,,
2075,03.04.1961,,,,,,,,,,,,,,,,,,,0,2,,,,,
2075,04.04.1961,,,,,,,,,,,,,,,,,,,0,2,,,,,
2075,05.04.1961,,,,,,,,,,,,,,,,,,,0,2,,,,,
2075,06.04.1961,,,,,,,,,,,,,,,,,,,0,2,,,,,
2075,07.04.1961,,,,,,,,,,,,,,,,,,,0,2,,,,,
2075,08.04.1961,,,,,,,,,,,,,,,,,,,0,2,,,,,
2075,09.04.1961,,,,,,,,,,,,,,,,,,,0,2,,,,,
2075,10.04.1961,,,,,,,,,,,,,,,,,,,0,2,,,,,
2075,11.04.1961,,,,,,,,,,,,,,,,,,,0,2,,,,,
2075,12.04.1961,,,,,,,,,,,,,,,,,,,0,2,,,,,
2075,13.04.1961,,,,,,,,,,,,,,,,,,,0,2,,,,,
2075,14.04.1961,,,,,,,,,,,,,,,,,,,0,2,,,,,
2075,15.04.1961,,,,,,,,,,,,,,,,,,,0,2,,,,,
2075,16.04.1961,,,,,,,,,,,,,,,,,,,0,2,,,,,
2075,17.04.1961,,,,,,,,,,,,,,,,,,,0,2,,,,,
2075,18.04.1961,,,,,,,,,,,,,,,,,,,0,2,,,,,
2075,19.04.1961,,,,,,,,,,,,,,,,,,,0,2,,,,,
2075,20.04.1961,,,,,,,,,,,,,,,,,,,0,2,,,,,
2075,21.04.1961,,,,,,,,,,,,,,,,,,,0,2,,,,,
2075,22.04.1961,,,,,,,,,,,,,,,,,,,0,2,,,,,
2075,23.04.1961,,,,,,,,,,,,,,,,,,,0,2,,,,,
2075,24.04.1961,,,,,,,,,,,,,,,,,,,0,2,,,,,
2075,25.04.1961,,,,,,,,,,,,,,,,,,,0,2,,,,,
2075,26.04.1961,,,,,,,,,,,,,,,,,,,0,2,,,,,
2075,27.04.1961,,,,,,,,,,,,,,,,,,,0,2,,,,,
2075,28.04.1961,,,,,,,,,,,,,,,,,,,0,2,,,,,
2075,29.04.1961,,,,,,,,,,,,,,,,,,,0,2,,,,,
2075,30.04.1961,,,,,,,,,,,,,,,,,,,0,2,,,,,
2075,01.05.1961,,,,,,,,,,,,,,,,,,,0,2,,,,,
2075,02.05.1961,,,,,,,,,,,,,,,,,,,0,2,,,,,
2075,03.05.1961,,,,,,,,,,,,,,,,,,,0,2,,,,,
2075,04.05.1961,,,,,,,,,,,,,,,,,,,0,2,,,,,
2075,05.05.1961,,,,,,,,,,,,,,,,,,,0,2,,,,,
2075,06.05.1961,,,,,,,,,,,,,,,,,,,0,2,,,,,
2075,07.05.1961,,,,,,,,,,,,,,,,,,,0,2,,,,,
2075,08.05.1961,,,,,,,,,,,,,,,,,,,0,2,,,,,
2075,09.05.1961,,,,,,,,,,,,,,,,,,,0,2,,,,,
2075,10.05.1961,,,,,,,,,,,,,,,,,,,0,2,,,,,
2075,11.05.1961,,,,,,,,,,,,,,,,,,,0,2,,,,,
2075,12.05.1961,,,,,,,,,,,,,,,,,,,0,2,,,,,
2075,13.05.1961,,,,,,,,,,,,,,,,,,,0,2,,,,,
2075,14.05.1961,,,,,,,,,,,,,,,,,,,0,2,,,,,
2075,15.05.1961,,,,,,,,,,,,,,,,,,,0,2,,,,,
2075,16.05.1961,,,,,,,,,,,,,,,,,,,0,2,,,,,
2075,17.05.1961,,,,,,,,,,,,,,,,,,,0,2,,,,,
2075,18.05.1961,,,,,,,,,,,,,,,,,,,0,2,,,,,
2075,19.05.1961,,,,,,,,,,,,,,,,,,,0,2,,,,,
2075,20.05.1961,,,,,,,,,,,,,,,,,,,0,2,,,,,
2075,21.05.1961,,,,,,,,,,,,,,,,,,,0,2,,,,,
2075,22.05.1961,,,,,,,,,,,,,,,,,,,0,2,,,,,
2075,23.05.1961,,,,,,,,,,,,,,,,,,,0,2,,,,,
2075,24.05.1961,,,,,,,,,,,,,,,,,,,0,2,,,,,
2075,25.05.1961,,,,,,,,,,,,,,,,,,,0,2,,,,,
2075,26.05.1961,,,,,,,,,,,,,,,,,,,0,2,,,,,
2075,27.05.1961,,,,,,,,,,,,,,,,,,,0,2,,,,,
2075,28.05.1961,,,,,,,,,,,,,,,,,,,0,2,,,,,
2075,29.05.1961,,,,,,,,,,,,,,,,,,,0,2,,,,,
2075,30.05.1961,,,,,,,,,,,,,,,,,,,0,2,,,,,
2075,31.05.1961,,,,,,,,,,,,,,,,,,,0,2,,,,,
2075,01.06.1961,,,,,,,,,,,,,,,,,,,0,2,,,,,
2075,02.06.1961,,,,,,,,,,,,,,,,,,,0,2,,,,,
2075,03.06.1961,,,,,,,,,,,,,,,,,,,0,2,,,,,
2075,04.06.1961,,,,,,,,,,,,,,,,,,,0,2,,,,,
2075,05.06.1961,,,,,,,,,,,,,,,,,,,0,2,,,,,
2075,06.06.1961,,,,,,,,,,,,,,,,,,,0,2,,,,,
2075,07.06.1961,,,,,,,,,,,,,,,,,,,0,2,,,,,
2075,08.06.1961,,,,,,,,,,,,,,,,,,,0,2,,,,,
2075,09.06.1961,,,,,,,,,,,,,,,,,,,0,2,,,,,
2075,10.06.1961,,,,,,,,,,,,,,,,,,,0,2,,,,,
2075,11.06.1961,,,,,,,,,,,,,,,,,,,0,2,,,,,
2075,12.06.1961,,,,,,,,,,,,,,,,,,,0,2,,,,,
2075,13.06.1961,,,,,,,,,,,,,,,,,,,0,2,,,,,
2075,14.06.1961,,,,,,,,,,,,,,,,,,,0,2,,,,,
2075,15.06.1961,,,,,,,,,,,,,,,,,,,0,2,,,,,
2075,16.06.1961,,,,,,,,,,,,,,,,,,,0,2,,,,,
2075,17.06.1961,,,,,,,,,,,,,,,,,,,0,2,,,,,
2075,18.06.1961,,,,,,,,,,,,,,,,,,,0,2,,,,,
2075,19.06.1961,,,,,,,,,,,,,,,,,,,0,2,,,,,
2075,20.06.1961,,,,,,,,,,,,,,,,,,,0,2,,,,,
2075,21.06.1961,,,,,,,,,,,,,,,,,,,0,2,,,,,
2075,22.06.1961,,,,,,,,,,,,,,,,,,,0,2,,,,,
2075,23.06.1961,,,,,,,,,,,,,,,,,,,0,2,,,,,
2075,24.06.1961,,,,,,,,,,,,,,,,,,,0,2,,,,,
2075,25.06.1961,,,,,,,,,,,,,,,,,,,0,2,,,,,
2075,26.06.1961,,,,,,,,,,,,,,,,,,,0,2,,,,,
2075,27.06.1961,,,,,,,,,,,,,,,,,,,0,2,,,,,
2075,28.06.1961,,,,,,,,,,,,,,,,,,,0,2,,,,,
2075,29.06.1961,,,,,,,,,,,,,,,,,,,0,2,,,,,
2075,30.06.1961,,,,,,,,,,,,,,,,,,,0,2,,,,,
2075,01.07.1961,,,,,,,,,,,,,,,,,,,0,2,,,,,
2075,02.07.1961,,,,,,,,,,,,,,,,,,,0,2,,,,,
2075,03.07.1961,,,,,,,,,,,,,,,,,,,0,2,,,,,
2075,04.07.1961,,,,,,,,,,,,,,,,,,,0,2,,,,,
2075,05.07.1961,,,,,,,,,,,,,,,,,,,0,2,,,,,
2075,06.07.1961,,,,,,,,,,,,,,,,,,,0,2,,,,,
2075,07.07.1961,,,,,,,,,,,,,,,,,,,0,2,,,,,
2075,08.07.1961,,,,,,,,,,,,,,,,,,,0,2,,,,,
2075,09.07.1961,,,,,,,,,,,,,,,,,,,0,2,,,,,
2075,10.07.1961,,,,,,,,,,,,,,,,,,,0,2,,,,,
2075,11.07.1961,,,,,,,,,,,,,,,,,,,0,2,,,,,
2075,12.07.1961,,,,,,,,,,,,,,,,,,,0,2,,,,,
2075,13.07.1961,,,,,,,,,,,,,,,,,,,0,2,,,,,
2075,14.07.1961,,,,,,,,,,,,,,,,,,,0,2,,,,,
2075,15.07.1961,,,,,,,,,,,,,,,,,,,0,2,,,,,
2075,16.07.1961,,,,,,,,,,,,,,,,,,,0,2,,,,,
2075,17.07.1961,,,,,,,,,,,,,,,,,,,0,2,,,,,
2075,18.07.1961,,,,,,,,,,,,,,,,,,,0,2,,,,,
2075,19.07.1961,,,,,,,,,,,,,,,,,,,0,2,,,,,
2075,20.07.1961,,,,,,,,,,,,,,,,,,,0,2,,,,,
2075,21.07.1961,,,,,,,,,,,,,,,,,,,0,2,,,,,
2075,22.07.1961,,,,,,,,,,,,,,,,,,,0,2,,,,,
2075,23.07.1961,,,,,,,,,,,,,,,,,,,0,2,,,,,
2075,24.07.1961,,,,,,,,,,,,,,,,,,,0,2,,,,,
2075,25.07.1961,,,,,,,,,,,,,,,,,,,0,2,,,,,
2075,26.07.1961,,,,,,,,,,,,,,,,,,,0,2,,,,,
2075,27.07.1961,,,,,,,,,,,,,,,,,,,0,2,,,,,
2075,28.07.1961,,,,,,,,,,,,,,,,,,,0,2,,,,,
2075,29.07.1961,,,,,,,,,,,,,,,,,,,0,2,,,,,
2075,30.07.1961,,,,,,,,,,,,,,,,,,,0,2,,,,,
2075,31.07.1961,,,,,,,,,,,,,,,,,,,0,2,,,,,
2075,01.08.1961,,,,,,,,,,,,,,,,,,,0,2,,,,,
2075,02.08.1961,,,,,,,,,,,,,,,,,,,0,2,,,,,
2075,03.08.1961,,,,,,,,,,,,,,,,,,,0,2,,,,,
2075,04.08.1961,,,,,,,,,,,,,,,,,,,0,2,,,,,
2075,05.08.1961,,,,,,,,,,,,,,,,,,,0,2,,,,,
2075,06.08.1961,,,,,,,,,,,,,,,,,,,0,2,,,,,
2075,07.08.1961,,,,,,,,,,,,,,,,,,,0,2,,,,,
2075,08.08.1961,,,,,,,,,,,,,,,,,,,0,2,,,,,
2075,09.08.1961,,,,,,,,,,,,,,,,,,,0,2,,,,,
2075,10.08.1961,,,,,,,,,,,,,,,,,,,0,2,,,,,
2075,11.08.1961,,,,,,,,,,,,,,,,,,,0,2,,,,,
2075,12.08.1961,,,,,,,,,,,,,,,,,,,0,2,,,,,
2075,13.08.1961,,,,,,,,,,,,,,,,,,,0,2,,,,,
2075,14.08.1961,,,,,,,,,,,,,,,,,,,0,2,,,,,
2075,15.08.1961,,,,,,,,,,,,,,,,,,,0,2,,,,,
2075,16.08.1961,,,,,,,,,,,,,,,,,,,0,2,,,,,
2075,17.08.1961,,,,,,,,,,,,,,,,,,,0,2,,,,,
2075,18.08.1961,,,,,,,,,,,,,,,,,,,0,2,,,,,
2075,19.08.1961,,,,,,,,,,,,,,,,,,,0,2,,,,,
2075,20.08.1961,,,,,,,,,,,,,,,,,,,0,2,,,,,
2075,21.08.1961,,,,,,,,,,,,,,,,,,,0,2,,,,,
2075,22.08.1961,,,,,,,,,,,,,,,,,,,0,2,,,,,
2075,23.08.1961,,,,,,,,,,,,,,,,,,,0,2,,,,,
2075,24.08.1961,,,,,,,,,,,,,,,,,,,0,2,,,,,
2075,25.08.1961,,,,,,,,,,,,,,,,,,,0,2,,,,,
2075,26.08.1961,,,,,,,,,,,,,,,,,,,0,2,,,,,
2075,27.08.1961,,,,,,,,,,,,,,,,,,,0,2,,,,,
2075,28.08.1961,,,,,,,,,,,,,,,,,,,0,2,,,,,
2075,29.08.1961,,,,,,,,,,,,,,,,,,,0,2,,,,,
2075,30.08.1961,,,,,,,,,,,,,,,,,,,0,2,,,,,
2075,31.08.1961,,,,,,,,,,,,,,,,,,,0,2,,,,,
2075,01.09.1961,,,,,,,,,,,,,,,,,,,0,2,,,,,
2075,02.09.1961,,,,,,,,,,,,,,,,,,,0,2,,,,,
2075,03.09.1961,,,,,,,,,,,,,,,,,,,0,2,,,,,
2075,04.09.1961,,,,,,,,,,,,,,,,,,,0,2,,,,,
2075,05.09.1961,,,,,,,,,,,,,,,,,,,0,2,,,,,
2075,06.09.1961,,,,,,,,,,,,,,,,,,,0,2,,,,,
2075,07.09.1961,,,,,,,,,,,,,,,,,,,0,2,,,,,
2075,08.09.1961,,,,,,,,,,,,,,,,,,,0,2,,,,,
2075,09.09.1961,,,,,,,,,,,,,,,,,,,0,2,,,,,
2075,10.09.1961,,,,,,,,,,,,,,,,,,,0,2,,,,,
2075,11.09.1961,,,,,,,,,,,,,,,,,,,0,2,,,,,
2075,12.09.1961,,,,,,,,,,,,,,,,,,,0,2,,,,,
2075,13.09.1961,,,,,,,,,,,,,,,,,,,0,2,,,,,
2075,14.09.1961,,,,,,,,,,,,,,,,,,,0,2,,,,,
2075,15.09.1961,,,,,,,,,,,,,,,,,,,0,2,,,,,
2075,16.09.1961,,,,,,,,,,,,,,,,,,,0,2,,,,,
2075,17.09.1961,,,,,,,,,,,,,,,,,,,0,2,,,,,
2075,18.09.1961,,,,,,,,,,,,,,,,,,,0,2,,,,,
2075,19.09.1961,,,,,,,,,,,,,,,,,,,0,2,,,,,
2075,20.09.1961,,,,,,,,,,,,,,,,,,,0,2,,,,,
2075,21.09.1961,,,,,,,,,,,,,,,,,,,0,2,,,,,
2075,22.09.1961,,,,,,,,,,,,,,,,,,,0,2,,,,,
2075,23.09.1961,,,,,,,,,,,,,,,,,,,0,2,,,,,
2075,24.09.1961,,,,,,,,,,,,,,,,,,,0,2,,,,,
2075,25.09.1961,,,,,,,,,,,,,,,,,,,0,2,,,,,
2075,26.09.1961,,,,,,,,,,,,,,,,,,,0,2,,,,,
2075,27.09.1961,,,,,,,,,,,,,,,,,,,0,2,,,,,
2075,28.09.1961,,,,,,,,,,,,,,,,,,,0,2,,,,,
2075,29.09.1961,,,,,,,,,,,,,,,,,,,0,2,,,,,
2075,30.09.1961,,,,,,,,,,,,,,,,,,,0,2,,,,,
2075,01.10.1961,,,,,,,,,,,,,,,,,,,0,2,,,,,
2075,02.10.1961,,,,,,,,,,,,,,,,,,,0,2,,,,,
2075,03.10.1961,,,,,,,,,,,,,,,,,,,0,2,,,,,
2075,04.10.1961,,,,,,,,,,,,,,,,,,,0,2,,,,,
2075,05.10.1961,,,,,,,,,,,,,,,,,,,0,2,,,,,
2075,06.10.1961,,,,,,,,,,,,,,,,,,,0,2,,,,,
2075,07.10.1961,,,,,,,,,,,,,,,,,,,0,2,,,,,
2075,08.10.1961,,,,,,,,,,,,,,,,,,,0,2,,,,,
2075,09.10.1961,,,,,,,,,,,,,,,,,,,0,2,,,,,
2075,10.10.1961,,,,,,,,,,,,,,,,,,,0,2,,,,,
2075,11.10.1961,,,,,,,,,,,,,,,,,,,0,2,,,,,
2075,12.10.1961,,,,,,,,,,,,,,,,,,,0,2,,,,,
2075,13.10.1961,,,,,,,,,,,,,,,,,,,0,2,,,,,
2075,14.10.1961,,,,,,,,,,,,,,,,,,,0,2,,,,,
2075,15.10.1961,,,,,,,,,,,,,,,,,,,0,2,,,,,
2075,16.10.1961,,,,,,,,,,,,,,,,,,,0,2,,,,,
2075,17.10.1961,,,,,,,,,,,,,,,,,,,0,2,,,,,
2075,18.10.1961,,,,,,,,,,,,,,,,,,,0,2,,,,,
2075,19.10.1961,,,,,,,,,,,,,,,,,,,0,2,,,,,
2075,20.10.1961,,,,,,,,,,,,,,,,,,,0,2,,,,,
2075,21.10.1961,,,,,,,,,,,,,,,,,,,0,2,,,,,
2075,22.10.1961,,,,,,,,,,,,,,,,,,,0,2,,,,,
2075,23.10.1961,,,,,,,,,,,,,,,,,,,0,2,,,,,
2075,24.10.1961,,,,,,,,,,,,,,,,,,,0,2,,,,,
2075,25.10.1961,,,,,,,,,,,,,,,,,,,0,2,,,,,
2075,26.10.1961,,,,,,,,,,,,,,,,,,,0,2,,,,,
2075,27.10.1961,,,,,,,,,,,,,,,,,,,0,2,,,,,
2075,28.10.1961,,,,,,,,,,,,,,,,,,,0,2,,,,,
2075,29.10.1961,,,,,,,,,,,,,,,,,,,0,2,,,,,
2075,30.10.1961,,,,,,,,,,,,,,,,,,,0,2,,,,,
2075,31.10.1961,,,,,,,,,,,,,,,,,,,0,2,,,,,
2075,01.11.1961,,,,,,,,,,,,,,,,,,,0,2,,,,,
2075,02.11.1961,,,,,,,,,,,,,,,,,,,0,2,,,,,
2075,03.11.1961,,,,,,,,,,,,,,,,,,,0,2,,,,,
2075,04.11.1961,,,,,,,,,,,,,,,,,,,0,2,,,,,
2075,05.11.1961,,,,,,,,,,,,,,,,,,,0,2,,,,,
2075,06.11.1961,,,,,,,,,,,,,,,,,,,0,2,,,,,
2075,07.11.1961,,,,,,,,,,,,,,,,,,,0,2,,,,,
2075,08.11.1961,,,,,,,,,,,,,,,,,,,0,2,,,,,
2075,09.11.1961,,,,,,,,,,,,,,,,,,,0,2,,,,,
2075,10.11.1961,,,,,,,,,,,,,,,,,,,0,2,,,,,
2075,11.11.1961,,,,,,,,,,,,,,,,,,,0,2,,,,,
2075,12.11.1961,,,,,,,,,,,,,,,,,,,0,2,,,,,
2075,13.11.1961,,,,,,,,,,,,,,,,,,,0,2,,,,,
2075,14.11.1961,,,,,,,,,,,,,,,,,,,0,2,,,,,
2075,15.11.1961,,,,,,,,,,,,,,,,,,,0,2,,,,,
2075,16.11.1961,,,,,,,,,,,,,,,,,,,0,2,,,,,
2075,17.11.1961,,,,,,,,,,,,,,,,,,,0,2,,,,,
2075,18.11.1961,,,,,,,,,,,,,,,,,,,0,2,,,,,
2075,19.11.1961,,,,,,,,,,,,,,,,,,,0,2,,,,,
2075,20.11.1961,,,,,,,,,,,,,,,,,,,0,2,,,,,
2075,21.11.1961,,,,,,,,,,,,,,,,,,,0,2,,,,,
2075,22.11.1961,,,,,,,,,,,,,,,,,,,0,2,,,,,
2075,23.11.1961,,,,,,,,,,,,,,,,,,,0,2,,,,,
2075,24.11.1961,,,,,,,,,,,,,,,,,,,0,2,,,,,
2075,25.11.1961,,,,,,,,,,,,,,,,,,,0,2,,,,,
2075,26.11.1961,,,,,,,,,,,,,,,,,,,0,2,,,,,
2075,27.11.1961,,,,,,,,,,,,,,,,,,,0,2,,,,,
2075,28.11.1961,,,,,,,,,,,,,,,,,,,0,2,,,,,
2075,29.11.1961,,,,,,,,,,,,,,,,,,,0,2,,,,,
2075,30.11.1961,,,,,,,,,,,,,,,,,,,0,2,,,,,
2075,01.12.1961,,,,,,,,,,,,,,,,,,,0,2,,,,,
2075,02.12.1961,,,,,,,,,,,,,,,,,,,0,2,,,,,
2075,03.12.1961,,,,,,,,,,,,,,,,,,,0,2,,,,,
2075,04.12.1961,,,,,,,,,,,,,,,,,,,0,2,,,,,
2075,05.12.1961,,,,,,,,,,,,,,,,,,,0,2,,,,,
2075,06.12.1961,,,,,,,,,,,,,,,,,,,0,2,,,,,
2075,07.12.1961,,,,,,,,,,,,,,,,,,,0,2,,,,,
2075,08.12.1961,,,,,,,,,,,,,,,,,,,0,2,,,,,
2075,09.12.1961,,,,,,,,,,,,,,,,,,,0,2,,,,,
2075,10.12.1961,,,,,,,,,,,,,,,,,,,0,2,,,,,
2075,11.12.1961,,,,,,,,,,,,,,,,,,,0,2,,,,,
2075,12.12.1961,,,,,,,,,,,,,,,,,,,0,2,,,,,
2075,13.12.1961,,,,,,,,,,,,,,,,,,,0,2,,,,,
2075,14.12.1961,,,,,,,,,,,,,,,,,,,0,2,,,,,
2075,15.12.1961,,,,,,,,,,,,,,,,,,,0,2,,,,,
2075,16.12.1961,,,,,,,,,,,,,,,,,,,1,2,,,,,
2075,17.12.1961,,,,,,,,,,,,,,,,,,,2,2,,,,,
2075,18.12.1961,,,,,,,,,,,,,,,,,,,2,2,,,,,
2075,19.12.1961,,,,,,,,,,,,,,,,,,,1,2,,,,,
2075,20.12.1961,,,,,,,,,,,,,,,,,,,0,2,,,,,
2075,21.12.1961,,,,,,,,,,,,,,,,,,,0,2,,,,,
2075,22.12.1961,,,,,,,,,,,,,,,,,,,0,2,,,,,
2075,23.12.1961,,,,,,,,,,,,,,,,,,,0,2,,,,,
2075,24.12.1961,,,,,,,,,,,,,,,,,,,1,2,,,,,
2075,25.12.1961,,,,,,,,,,,,,,,,,,,2,2,,,,,
2075,26.12.1961,,,,,,,,,,,,,,,,,,,1,2,,,,,
2075,27.12.1961,,,,,,,,,,,,,,,,,,,1,2,,,,,
2075,28.12.1961,,,,,,,,,,,,,,,,,,,1,2,,,,,
2075,29.12.1961,,,,,,,,,,,,,,,,,,,0,2,,,,,
2075,30.12.1961,,,,,,,,,,,,,,,,,,,0,2,,,,,
2075,31.12.1961,,,,,,,,,,,,,,,,,,,0,2,,,,,
2075,01.01.1962,,,,,,,,,,,,,,,,,,,0,2,,,,,
2075,02.01.1962,,,,,,,,,,,,,,,,,,,0,2,,,,,
2075,03.01.1962,,,,,,,,,,,,,,,,,,,0,2,,,,,
2075,04.01.1962,,,,,,,,,,,,,,,,,,,0,2,,,,,
2075,05.01.1962,,,,,,,,,,,,,,,,,,,0,2,,,,,
2075,06.01.1962,,,,,,,,,,,,,,,,,,,0,2,,,,,
2075,07.01.1962,,,,,,,,,,,,,,,,,,,0,2,,,,,
2075,08.01.1962,,,,,,,,,,,,,,,,,,,0,2,,,,,
2075,09.01.1962,,,,,,,,,,,,,,,,,,,0,2,,,,,
2075,10.01.1962,,,,,,,,,,,,,,,,,,,0,2,,,,,
2075,11.01.1962,,,,,,,,,,,,,,,,,,,0,2,,,,,
2075,12.01.1962,,,,,,,,,,,,,,,,,,,0,2,,,,,
2075,13.01.1962,,,,,,,,,,,,,,,,,,,0,2,,,,,
2075,14.01.1962,,,,,,,,,,,,,,,,,,,0,2,,,,,
2075,15.01.1962,,,,,,,,,,,,,,,,,,,0,2,,,,,
2075,16.01.1962,,,,,,,,,,,,,,,,,,,0,2,,,,,
2075,17.01.1962,,,,,,,,,,,,,,,,,,,0,2,,,,,
2075,18.01.1962,,,,,,,,,,,,,,,,,,,0,2,,,,,
2075,19.01.1962,,,,,,,,,,,,,,,,,,,0,2,,,,,
2075,20.01.1962,,,,,,,,,,,,,,,,,,,0,2,,,,,
2075,21.01.1962,,,,,,,,,,,,,,,,,,,0,2,,,,,
2075,22.01.1962,,,,,,,,,,,,,,,,,,,0,2,,,,,
2075,23.01.1962,,,,,,,,,,,,,,,,,,,0,2,,,,,
2075,24.01.1962,,,,,,,,,,,,,,,,,,,0,2,,,,,
2075,25.01.1962,,,,,,,,,,,,,,,,,,,0,2,,,,,
2075,26.01.1962,,,,,,,,,,,,,,,,,,,0,2,,,,,
2075,27.01.1962,,,,,,,,,,,,,,,,,,,0,2,,,,,
2075,28.01.1962,,,,,,,,,,,,,,,,,,,0,2,,,,,
2075,29.01.1962,,,,,,,,,,,,,,,,,,,0,2,,,,,
2075,30.01.1962,,,,,,,,,,,,,,,,,,,0,2,,,,,
2075,31.01.1962,,,,,,,,,,,,,,,,,,,1,2,,,,,
2075,01.02.1962,,,,,,,,,,,,,,,,,,,1,2,,,,,
2075,02.02.1962,,,,,,,,,,,,,,,,,,,1,2,,,,,
2075,03.02.1962,,,,,,,,,,,,,,,,,,,0,2,,,,,
2075,04.02.1962,,,,,,,,,,,,,,,,,,,0,2,,,,,
2075,05.02.1962,,,,,,,,,,,,,,,,,,,0,2,,,,,
2075,06.02.1962,,,,,,,,,,,,,,,,,,,0,2,,,,,
2075,07.02.1962,,,,,,,,,,,,,,,,,,,0,2,,,,,
2075,08.02.1962,,,,,,,,,,,,,,,,,,,0,2,,,,,
2075,09.02.1962,,,,,,,,,,,,,,,,,,,0,2,,,,,
2075,10.02.1962,,,,,,,,,,,,,,,,,,,0,2,,,,,
2075,11.02.1962,,,,,,,,,,,,,,,,,,,0,2,,,,,
2075,12.02.1962,,,,,,,,,,,,,,,,,,,0,2,,,,,
2075,13.02.1962,,,,,,,,,,,,,,,,,,,0,2,,,,,
2075,14.02.1962,,,,,,,,,,,,,,,,,,,0,2,,,,,
2075,15.02.1962,,,,,,,,,,,,,,,,,,,0,2,,,,,
2075,16.02.1962,,,,,,,,,,,,,,,,,,,0,2,,,,,
2075,17.02.1962,,,,,,,,,,,,,,,,,,,0,2,,,,,
2075,18.02.1962,,,,,,,,,,,,,,,,,,,0,2,,,,,
2075,19.02.1962,,,,,,,,,,,,,,,,,,,0,2,,,,,
2075,20.02.1962,,,,,,,,,,,,,,,,,,,0,2,,,,,
2075,21.02.1962,,,,,,,,,,,,,,,,,,,0,2,,,,,
2075,22.02.1962,,,,,,,,,,,,,,,,,,,0,2,,,,,
2075,23.02.1962,,,,,,,,,,,,,,,,,,,0,2,,,,,
2075,24.02.1962,,,,,,,,,,,,,,,,,,,0,2,,,,,
2075,25.02.1962,,,,,,,,,,,,,,,,,,,1,2,,,,,
2075,26.02.1962,,,,,,,,,,,,,,,,,,,1,2,,,,,
2075,27.02.1962,,,,,,,,,,,,,,,,,,,0,2,,,,,
2075,28.02.1962,,,,,,,,,,,,,,,,,,,0,2,,,,,
2075,01.03.1962,,,,,,,,,,,,,,,,,,,0,2,,,,,
2075,02.03.1962,,,,,,,,,,,,,,,,,,,0,2,,,,,
2075,03.03.1962,,,,,,,,,,,,,,,,,,,0,2,,,,,
2075,04.03.1962,,,,,,,,,,,,,,,,,,,1,2,,,,,
2075,05.03.1962,,,,,,,,,,,,,,,,,,,7,2,,,,,
2075,06.03.1962,,,,,,,,,,,,,,,,,,,11,2,,,,,
2075,07.03.1962,,,,,,,,,,,,,,,,,,,8,2,,,,,
2075,08.03.1962,,,,,,,,,,,,,,,,,,,6,2,,,,,
2075,09.03.1962,,,,,,,,,,,,,,,,,,,3,2,,,,,
2075,10.03.1962,,,,,,,,,,,,,,,,,,,1,2,,,,,
2075,11.03.1962,,,,,,,,,,,,,,,,,,,0,2,,,,,
2075,12.03.1962,,,,,,,,,,,,,,,,,,,0,2,,,,,
2075,13.03.1962,,,,,,,,,,,,,,,,,,,0,2,,,,,
2075,14.03.1962,,,,,,,,,,,,,,,,,,,1,2,,,,,
2075,15.03.1962,,,,,,,,,,,,,,,,,,,0,2,,,,,
2075,16.03.1962,,,,,,,,,,,,,,,,,,,0,2,,,,,
2075,17.03.1962,,,,,,,,,,,,,,,,,,,0,2,,,,,
2075,18.03.1962,,,,,,,,,,,,,,,,,,,0,2,,,,,
2075,19.03.1962,,,,,,,,,,,,,,,,,,,0,2,,,,,
2075,20.03.1962,,,,,,,,,,,,,,,,,,,0,2,,,,,
2075,21.03.1962,,,,,,,,,,,,,,,,,,,0,2,,,,,
2075,22.03.1962,,,,,,,,,,,,,,,,,,,0,2,,,,,
2075,23.03.1962,,,,,,,,,,,,,,,,,,,0,2,,,,,
2075,24.03.1962,,,,,,,,,,,,,,,,,,,0,2,,,,,
2075,25.03.1962,,,,,,,,,,,,,,,,,,,0,2,,,,,
2075,26.03.1962,,,,,,,,,,,,,,,,,,,0,2,,,,,
2075,27.03.1962,,,,,,,,,,,,,,,,,,,0,2,,,,,
2075,28.03.1962,,,,,,,,,,,,,,,,,,,0,2,,,,,
2075,29.03.1962,,,,,,,,,,,,,,,,,,,0,2,,,,,
2075,30.03.1962,,,,,,,,,,,,,,,,,,,0,2,,,,,
2075,31.03.1962,,,,,,,,,,,,,,,,,,,0,2,,,,,
2075,01.04.1962,,,,,,,,,,,,,,,,,,,0,2,,,,,
2075,02.04.1962,,,,,,,,,,,,,,,,,,,0,2,,,,,
2075,03.04.1962,,,,,,,,,,,,,,,,,,,0,2,,,,,
2075,04.04.1962,,,,,,,,,,,,,,,,,,,0,2,,,,,
2075,05.04.1962,,,,,,,,,,,,,,,,,,,0,2,,,,,
2075,06.04.1962,,,,,,,,,,,,,,,,,,,0,2,,,,,
2075,07.04.1962,,,,,,,,,,,,,,,,,,,0,2,,,,,
2075,08.04.1962,,,,,,,,,,,,,,,,,,,0,2,,,,,
2075,09.04.1962,,,,,,,,,,,,,,,,,,,0,2,,,,,
2075,10.04.1962,,,,,,,,,,,,,,,,,,,0,2,,,,,
2075,11.04.1962,,,,,,,,,,,,,,,,,,,0,2,,,,,
2075,12.04.1962,,,,,,,,,,,,,,,,,,,0,2,,,,,
2075,13.04.1962,,,,,,,,,,,,,,,,,,,0,2,,,,,
2075,14.04.1962,,,,,,,,,,,,,,,,,,,0,2,,,,,
2075,15.04.1962,,,,,,,,,,,,,,,,,,,0,2,,,,,
2075,16.04.1962,,,,,,,,,,,,,,,,,,,0,2,,,,,
2075,17.04.1962,,,,,,,,,,,,,,,,,,,0,2,,,,,
2075,18.04.1962,,,,,,,,,,,,,,,,,,,0,2,,,,,
2075,19.04.1962,,,,,,,,,,,,,,,,,,,0,2,,,,,
2075,20.04.1962,,,,,,,,,,,,,,,,,,,0,2,,,,,
2075,21.04.1962,,,,,,,,,,,,,,,,,,,0,2,,,,,
2075,22.04.1962,,,,,,,,,,,,,,,,,,,0,2,,,,,
2075,23.04.1962,,,,,,,,,,,,,,,,,,,0,2,,,,,
2075,24.04.1962,,,,,,,,,,,,,,,,,,,0,2,,,,,
2075,25.04.1962,,,,,,,,,,,,,,,,,,,0,2,,,,,
2075,26.04.1962,,,,,,,,,,,,,,,,,,,0,2,,,,,
2075,27.04.1962,,,,,,,,,,,,,,,,,,,0,2,,,,,
2075,28.04.1962,,,,,,,,,,,,,,,,,,,0,2,,,,,
2075,29.04.1962,,,,,,,,,,,,,,,,,,,0,2,,,,,
2075,30.04.1962,,,,,,,,,,,,,,,,,,,0,2,,,,,
2075,01.05.1962,,,,,,,,,,,,,,,,,,,0,2,,,,,
2075,02.05.1962,,,,,,,,,,,,,,,,,,,0,2,,,,,
2075,03.05.1962,,,,,,,,,,,,,,,,,,,0,2,,,,,
2075,04.05.1962,,,,,,,,,,,,,,,,,,,0,2,,,,,
2075,05.05.1962,,,,,,,,,,,,,,,,,,,0,2,,,,,
2075,06.05.1962,,,,,,,,,,,,,,,,,,,0,2,,,,,
2075,07.05.1962,,,,,,,,,,,,,,,,,,,0,2,,,,,
2075,08.05.1962,,,,,,,,,,,,,,,,,,,0,2,,,,,
2075,09.05.1962,,,,,,,,,,,,,,,,,,,0,2,,,,,
2075,10.05.1962,,,,,,,,,,,,,,,,,,,0,2,,,,,
2075,11.05.1962,,,,,,,,,,,,,,,,,,,0,2,,,,,
2075,12.05.1962,,,,,,,,,,,,,,,,,,,0,2,,,,,
2075,13.05.1962,,,,,,,,,,,,,,,,,,,0,2,,,,,
2075,14.05.1962,,,,,,,,,,,,,,,,,,,0,2,,,,,
2075,15.05.1962,,,,,,,,,,,,,,,,,,,0,2,,,,,
2075,16.05.1962,,,,,,,,,,,,,,,,,,,0,2,,,,,
2075,17.05.1962,,,,,,,,,,,,,,,,,,,0,2,,,,,
2075,18.05.1962,,,,,,,,,,,,,,,,,,,0,2,,,,,
2075,19.05.1962,,,,,,,,,,,,,,,,,,,0,2,,,,,
2075,20.05.1962,,,,,,,,,,,,,,,,,,,0,2,,,,,
2075,21.05.1962,,,,,,,,,,,,,,,,,,,0,2,,,,,
2075,22.05.1962,,,,,,,,,,,,,,,,,,,0,2,,,,,
2075,23.05.1962,,,,,,,,,,,,,,,,,,,0,2,,,,,
2075,24.05.1962,,,,,,,,,,,,,,,,,,,0,2,,,,,
2075,25.05.1962,,,,,,,,,,,,,,,,,,,0,2,,,,,
2075,26.05.1962,,,,,,,,,,,,,,,,,,,0,2,,,,,
2075,27.05.1962,,,,,,,,,,,,,,,,,,,0,2,,,,,
2075,28.05.1962,,,,,,,,,,,,,,,,,,,0,2,,,,,
2075,29.05.1962,,,,,,,,,,,,,,,,,,,0,2,,,,,
2075,30.05.1962,,,,,,,,,,,,,,,,,,,0,2,,,,,
2075,31.05.1962,,,,,,,,,,,,,,,,,,,0,2,,,,,
2075,01.06.1962,,,,,,,,,,,,,,,,,,,0,2,,,,,
2075,02.06.1962,,,,,,,,,,,,,,,,,,,0,2,,,,,
2075,03.06.1962,,,,,,,,,,,,,,,,,,,0,2,,,,,
2075,04.06.1962,,,,,,,,,,,,,,,,,,,0,2,,,,,
2075,05.06.1962,,,,,,,,,,,,,,,,,,,0,2,,,,,
2075,06.06.1962,,,,,,,,,,,,,,,,,,,0,2,,,,,
2075,07.06.1962,,,,,,,,,,,,,,,,,,,0,2,,,,,
2075,08.06.1962,,,,,,,,,,,,,,,,,,,0,2,,,,,
2075,09.06.1962,,,,,,,,,,,,,,,,,,,0,2,,,,,
2075,10.06.1962,,,,,,,,,,,,,,,,,,,0,2,,,,,
2075,11.06.1962,,,,,,,,,,,,,,,,,,,0,2,,,,,
2075,12.06.1962,,,,,,,,,,,,,,,,,,,0,2,,,,,
2075,13.06.1962,,,,,,,,,,,,,,,,,,,0,2,,,,,
2075,14.06.1962,,,,,,,,,,,,,,,,,,,0,2,,,,,
2075,15.06.1962,,,,,,,,,,,,,,,,,,,0,2,,,,,
2075,16.06.1962,,,,,,,,,,,,,,,,,,,0,2,,,,,
2075,17.06.1962,,,,,,,,,,,,,,,,,,,0,2,,,,,
2075,18.06.1962,,,,,,,,,,,,,,,,,,,0,2,,,,,
2075,19.06.1962,,,,,,,,,,,,,,,,,,,0,2,,,,,
2075,20.06.1962,,,,,,,,,,,,,,,,,,,0,2,,,,,
2075,21.06.1962,,,,,,,,,,,,,,,,,,,0,2,,,,,
2075,22.06.1962,,,,,,,,,,,,,,,,,,,0,2,,,,,
2075,23.06.1962,,,,,,,,,,,,,,,,,,,0,2,,,,,
2075,24.06.1962,,,,,,,,,,,,,,,,,,,0,2,,,,,
2075,25.06.1962,,,,,,,,,,,,,,,,,,,0,2,,,,,
2075,26.06.1962,,,,,,,,,,,,,,,,,,,0,2,,,,,
2075,27.06.1962,,,,,,,,,,,,,,,,,,,0,2,,,,,